Wind_Speed
9 10 11 3 1 3 3 7 10 7 8 10 9 9 8 8 8 8 7 10 13 14 14 14 10 7 7 7 5 10 16 15 10 11 9 8 10 13 12 13 12 14 17 13
12 10 5 4 3 5 7 7 7 6 6 7 7 9 8 4 7 7 8 11 15 15 16 16 8 13 6 2 5 4 9 12 10 10 7 8 11 10 10 10 11 8 9 12
16 8 3 4 8 7 12 5 8 10 10 9 6 7 5 3 3 1 5 10 14 15 16 15 10 12 9 12 5 7 7 4 8 9 7 9 10 12 8 8 10 10 14 15
17 16 8 10 10 8 14 5 9 10 12 6 3 3 8 10 8 8 5 6 9 12 15 16 16 17 10 11 13 9 9 8 3 5 6 7 8 9 8 7 8 6 10 12
16 13 13 12 11 6 10 9 8 9 10 12 6 7 6 13 10 5 3 5 5 7 10 13 16 18 12 13 9 15 12 9 6 4 6 7 7 9 10 10 10 9 10 9
15 10 12 15 11 9 11 12 10 7 10 12 2 7 8 5 7 2 2 3 5 6 9 9 14 17 17 16 7 10 11 8 6 6 6 6 7 7 8 9 9 10 11 10
15 18 13 13 14 10 9 15 15 12 9 7 4 8 9 5 5 5 4 3 3 3 7 8 11 14 17 16 15 15 12 11 11 5 7 9 10 9 9 8 9 11 9 10
12 19 15 16 15 17 16 16 12 5 6 10 3 4 2 2 2 3 4 3 2 3 4 8 9 10 14 17 12 14 17 14 17 15 8 11 13 13 13 14 11 10 9 14
8 6 6 9 10 12 9 10 9 12 7 8 1 4 5 4 0 3 4 2 2 3 4 10 12 9 12 19 14 13 14 18 20 19 21 16 17 17 15 14 14 12 13 17
5 5 6 4 8 13 13 7 8 8 2 8 8 6 12 5 1 3 6 3 2 2 12 15 14 13 13 21 15 15 13 15 17 21 24 25 21 21 20 18 16 14 13 18
9 11 7 7 12 12 12 14 10 11 11 9 9 9 3 2 3 5 6 3 5 6 15 12 14 15 17 22 19 15 15 14 15 18 19 23 25 24 24 22 20 21 24 33
12 11 16 15 8 11 12 13 11 14 8 15 12 9 3 3 4 6 6 8 10 5 7 8 12 14 15 15 15 14 13 23 21 19 17 16 22 24 22 22 23 23 20 18
8 13 19 16 16 12 18 17 16 18 17 17 13 8 5 3 4 8 8 10 11 16 9 8 8 15 14 19 18 18 19 24 22 17 17 20 22 23 21 23 25 26 20 18
14 17 21 21 6 12 10 12 13 16 21 21 21 23 8 7 10 7 11 13 11 14 17 14 9 21 25 25 24 24 23 21 18 14 16 16 16 20 20 18 19 21 19 18
7 16 19 19 12 12 17 19 18 18 20 22 25 24 22 19 12 15 14 9 11 13 13 14 14 20 21 23 25 24 24 22 20 19 18 16 16 19 21 21 20 20 25 22
11 18 17 20 20 22 22 21 22 23 24 25 23 22 18 9 7 6 7 8 7 10 13 17 20 20 21 22 22 23 20 18 18 19 18 18 18 21 23 21 18 24 24 23
15 18 19 24 19 23 24 24 20 19 17 17 20 14 7 7 9 8 10 14 15 14 14 10 13 13 16 18 20 23 22 20 20 21 22 20 21 19 19 20 17 18 15 14
16 17 17 23 22 19 23 8 9 13 16 17 15 15 13 9 11 11 13 15 14 11 14 20 23 25 24 17 20 28 29 29 28 28 27 28 28 27 23 22 20 18 18 15
16 18 20 22 23 21 18 6 6 7 8 11 11 12 11 12 13 18 16 14 14 21 25 22 21 22 32 34 35 37 37 37 36 35 33 34 35 34 33 30 27 23 23 21
9 12 17 18 16 13 2 1 2 6 16 4 6 9 11 12 14 13 9 14 19 22 25 31 38 41 41 44 43 45 47 47 47 45 42 41 41 42 40 39 39 38 35 32
8 7 13 14 15 10 2 4 12 11 5 5 7 9 12 16 19 24 29 31 27 28 29 28 30 33 36 36 38 41 42 44 47 50 52 53 53 51 51 48 45 44 43 41
10 10 11 11 13 10 4 7 5 7 9 11 15 18 22 24 27 28 29 29 28 29 29 30 31 32 32 35 38 42 42 42 43 45 47 47 47 47 51 57 58 55 52 52
7 9 8 4 3 11 7 7 10 13 19 18 20 21 23 25 26 27 29 30 31 32 33 33 34 35 36 36 39 43 44 40 36 39 42 43 44 42 44 48 52 56 60 57
11 15 12 10 5 8 11 13 15 16 18 18 21 23 25 28 29 31 33 33 34 34 35 35 36 39 41 40 42 39 40 40 39 38 39 39 41 41 40 42 45 50 51 51
8 9 8 10 10 10 8 11 15 16 19 21 24 26 28 31 33 34 35 37 37 36 37 41 42 45 46 44 37 38 37 35 36 37 37 37 38 41 40 38 38 43 45 41
8 6 6 7 8 12 14 16 18 20 21 23 27 29 29 32 35 37 41 41 42 44 46 48 44 42 42 40 39 41 38 34 33 32 29 33 32 34 29 29 30 33 38 39
Wind_Direction
206 226 225 142 325 338 305 290 309 301 303 302 285 288 276 273 248 249 238 219 220 211 209 207 222 176 186 215 287 274 267 268 297 237 249 263 270 275 280 269 278 279 239 234
201 229 265 215 263 282 294 287 301 324 318 298 283 287 289 259 217 230 227 218 206 207 211 207 237 222 238 300 318 323 264 271 279 273 269 268 278 289 284 280 278 268 228 228
214 202 191 249 250 278 283 280 336 319 301 261 278 242 166 111 90 224 172 194 196 207 212 210 222 235 238 257 293 342 351 276 262 280 278 270 271 261 285 270 273 264 264 257
220 235 264 246 247 269 295 351 318 309 300 355 227 225 151 137 111 97 111 156 195 212 219 222 214 213 230 261 265 282 355 340 312 275 288 284 262 263 269 275 271 266 274 270
226 230 249 237 245 276 273 315 300 302 278 267 212 107 246 159 117 99 126 158 200 232 229 227 221 220 219 231 276 273 290 352 332 290 267 270 269 270 274 272 276 266 258 269
230 252 237 233 249 258 272 282 269 253 256 263 145 252 250 34 94 52 255 228 229 227 233 229 228 215 218 227 289 276 275 278 311 293 273 269 267 265 279 276 279 279 277 264
233 234 244 238 249 253 262 261 255 232 215 147 109 302 113 92 64 48 28 252 245 175 193 196 209 215 222 221 237 251 267 258 277 255 274 264 271 272 268 269 272 281 296 281
217 209 221 227 243 248 246 273 280 253 273 93 174 109 327 20 22 13 14 7 77 145 164 203 215 206 220 219 230 235 254 256 260 257 262 259 258 264 267 272 276 283 273 273
201 177 178 218 229 228 227 253 322 309 221 243 87 150 237 148 73 347 337 351 78 117 138 229 247 227 234 212 225 238 253 263 260 264 263 266 263 256 266 253 268 277 293 295
251 193 197 211 204 219 237 297 268 298 347 287 159 298 101 133 55 329 303 280 300 271 254 268 268 256 230 214 228 238 259 260 261 267 268 266 267 255 260 263 270 277 285 287
229 244 177 209 220 213 208 235 251 277 308 316 289 108 214 15 304 288 284 283 271 285 284 284 271 261 233 223 238 242 261 259 266 276 266 267 256 264 258 261 264 282 284 294
222 259 241 233 199 232 256 282 276 269 255 261 309 307 108 107 307 295 278 287 271 266 266 271 267 251 240 241 242 254 263 285 285 291 285 279 264 258 257 263 266 271 280 287
229 239 253 241 236 240 244 248 257 269 285 281 274 271 163 315 299 265 259 263 287 284 261 280 266 267 272 273 271 277 280 273 282 284 280 277 261 262 256 260 262 265 272 274
232 254 269 291 264 259 249 235 252 269 281 293 293 304 289 311 301 286 276 273 262 277 271 226 250 271 282 285 285 288 289 288 283 271 271 283 276 254 264 259 261 262 258 265
236 266 264 280 275 265 272 277 275 271 276 277 288 294 290 294 271 273 295 292 260 258 250 269 262 281 279 274 280 280 281 279 277 277 272 270 264 249 253 259 265 258 247 248
264 269 276 276 274 277 272 273 273 273 277 279 283 283 286 268 273 287 286 286 270 258 274 281 281 280 285 282 279 280 277 270 263 264 267 265 254 250 254 257 259 264 282 262
266 270 277 274 276 283 277 270 274 278 276 278 286 283 291 284 279 276 285 283 276 278 285 281 281 293 285 285 290 279 269 269 265 263 264 261 261 255 253 256 265 278 290 299
265 266 273 273 276 268 270 266 278 279 279 279 271 271 261 260 265 291 283 267 266 272 278 280 282 282 282 279 267 272 276 271 269 267 267 268 264 262 259 264 266 271 281 280
257 260 264 269 262 273 274 259 269 283 280 297 247 272 277 287 285 299 283 266 272 273 276 281 282 282 278 278 278 279 278 276 275 273 269 267 265 261 262 263 263 264 272 274
267 252 245 253 265 282 75 281 314 303 296 260 261 275 270 275 286 293 298 289 283 281 281 277 278 278 276 274 273 273 274 273 273 269 266 265 265 266 262 262 268 268 264 267
266 261 246 248 254 259 278 302 293 288 278 300 305 294 292 289 280 280 272 277 288 287 286 285 284 286 286 279 276 274 273 273 272 268 266 264 263 263 266 265 261 262 267 268
253 263 261 247 270 263 337 319 290 266 295 296 298 296 292 290 290 288 287 288 290 289 288 287 288 286 285 283 282 281 275 278 279 267 266 266 267 265 263 262 264 263 262 265
261 239 269 270 337 307 310 309 295 292 296 295 294 297 296 295 294 294 293 292 291 290 292 292 290 287 284 283 277 277 283 282 278 274 271 269 268 269 268 265 261 261 262 263
260 265 256 284 257 282 292 299 301 300 297 296 296 298 300 299 298 294 293 293 291 290 290 290 287 283 281 278 282 278 282 281 281 278 273 270 271 273 271 269 264 261 259 257
257 266 281 278 282 267 305 294 305 300 298 296 298 301 300 299 297 295 293 289 285 286 287 284 281 283 283 283 284 285 281 279 276 276 278 277 274 272 273 272 262 256 254 253
249 242 241 252 299 284 295 303 309 311 310 304 304 303 301 296 291 286 284 286 286 288 286 288 292 291 291 286 279 276 281 274 272 275 275 272 275 277 275 271 260 267 258 252
Height
3188 3187 3182 3181 3184 3186 3187 3185 3183 3183 3183 3184 3182 3180 3180 3180 3180 3181 3181 3182 3182 3184 3184 3184 3182 3184 3184 3184 3182 3182 3181 3184 3184 3184 3185 3183 3182 3182 3184 3184 3183 3182 3181 3184
3187 3185 3182 3184 3187 3187 3185 3183 3181 3181 3182 3181 3179 3177 3177 3177 3178 3178 3179 3180 3181 3183 3183 3183 3181 3182 3184 3182 3181 3182 3182 3182 3183 3183 3182 3181 3180 3180 3182 3183 3182 3182 3182 3182
3183 3183 3182 3186 3186 3185 3181 3180 3182 3183 3179 3176 3175 3175 3175 3176 3177 3176 3176 3178 3180 3181 3182 3181 3181 3180 3181 3181 3180 3180 3181 3180 3180 3180 3181 3180 3181 3180 3180 3180 3181 3181 3181 3181
3183 3181 3183 3185 3185 3184 3181 3181 3182 3181 3177 3171 3174 3183 3174 3175 3177 3177 3178 3179 3180 3180 3180 3181 3182 3181 3180 3179 3180 3179 3178 3178 3179 3179 3180 3179 3180 3179 3181 3180 3180 3181 3180 3180
3180 3181 3183 3184 3183 3183 3183 3182 3182 3180 3176 3171 3169 3171 3176 3172 3174 3177 3178 3179 3180 3179 3180 3182 3181 3182 3181 3180 3179 3178 3178 3178 3177 3177 3178 3179 3178 3179 3178 3179 3179 3178 3177 3178
3178 3179 3181 3181 3181 3182 3183 3181 3178 3175 3173 3167 3165 3167 3170 3162 3172 3176 3178 3179 3178 3179 3180 3180 3181 3181 3180 3180 3179 3178 3178 3179 3178 3178 3179 3178 3177 3177 3177 3177 3176 3176 3176 3175
3176 3177 3178 3180 3180 3180 3180 3175 3170 3168 3162 3169 3165 3167 3171 3172 3174 3176 3178 3178 3177 3178 3178 3179 3179 3179 3177 3179 3178 3177 3176 3177 3178 3178 3177 3177 3177 3177 3175 3176 3174 3174 3173 3175
3169 3169 3173 3175 3178 3176 3174 3171 3167 3162 3162 3167 3163 3166 3170 3174 3175 3177 3178 3178 3177 3176 3175 3175 3176 3177 3176 3176 3177 3177 3175 3175 3175 3175 3175 3175 3174 3174 3173 3173 3171 3172 3172 3172
3166 3167 3171 3174 3175 3176 3171 3172 3168 3163 3160 3162 3160 3165 3168 3173 3175 3177 3178 3177 3178 3176 3173 3172 3173 3173 3173 3174 3174 3173 3173 3171 3171 3171 3171 3171 3171 3171 3170 3170 3169 3170 3171 3170
3168 3167 3170 3172 3173 3174 3172 3172 3168 3166 3163 3160 3160 3162 3164 3171 3174 3176 3177 3178 3177 3172 3169 3170 3169 3169 3170 3171 3170 3169 3169 3169 3168 3168 3166 3167 3167 3167 3167 3167 3167 3167 3165 3165
3169 3168 3168 3170 3171 3168 3171 3170 3169 3166 3165 3161 3160 3165 3170 3172 3173 3175 3178 3174 3176 3172 3167 3166 3166 3166 3166 3166 3167 3166 3165 3165 3165 3163 3163 3161 3162 3162 3164 3164 3164 3163 3161 3158
3169 3166 3164 3162 3164 3168 3168 3167 3168 3166 3166 3166 3165 3164 3166 3168 3172 3173 3174 3174 3171 3171 3167 3164 3163 3163 3163 3164 3164 3164 3163 3163 3161 3159 3158 3158 3158 3158 3159 3160 3160 3157 3157 3156
3168 3168 3163 3160 3161 3164 3166 3168 3168 3166 3164 3164 3165 3162 3164 3165 3167 3170 3171 3172 3170 3166 3166 3164 3162 3160 3161 3160 3160 3160 3159 3158 3157 3155 3154 3153 3153 3152 3155 3156 3156 3154 3153 3154
3167 3166 3162 3158 3167 3168 3165 3165 3166 3167 3164 3161 3160 3161 3163 3164 3165 3165 3166 3167 3167 3163 3159 3161 3161 3156 3156 3156 3155 3154 3153 3152 3152 3151 3150 3149 3149 3150 3150 3151 3150 3150 3149 3148
3166 3164 3162 3159 3160 3163 3164 3162 3162 3163 3164 3164 3163 3162 3162 3161 3159 3159 3160 3161 3161 3160 3157 3155 3154 3152 3152 3151 3150 3149 3149 3148 3147 3146 3146 3145 3145 3145 3145 3145 3146 3144 3142 3141
3164 3163 3162 3160 3161 3160 3158 3160 3159 3159 3160 3159 3159 3159 3158 3156 3156 3156 3156 3157 3156 3155 3151 3149 3148 3148 3147 3146 3145 3144 3143 3143 3142 3141 3141 3141 3141 3140 3139 3138 3139 3135 3138 3139
3162 3161 3160 3156 3158 3156 3154 3155 3155 3155 3155 3156 3156 3157 3154 3155 3155 3154 3152 3152 3150 3149 3147 3147 3146 3144 3142 3142 3141 3138 3138 3138 3138 3137 3136 3136 3136 3136 3134 3133 3133 3132 3133 3135
3159 3159 3159 3156 3156 3151 3150 3148 3151 3152 3153 3154 3154 3154 3150 3151 3151 3150 3148 3146 3146 3145 3143 3141 3140 3138 3137 3137 3135 3131 3131 3131 3130 3130 3129 3129 3130 3129 3129 3127 3128 3128 3127 3127
3155 3155 3154 3153 3149 3148 3147 3146 3148 3149 3151 3150 3150 3150 3148 3146 3146 3146 3145 3142 3141 3139 3137 3135 3134 3132 3128 3128 3127 3124 3122 3121 3121 3121 3121 3121 3120 3121 3122 3121 3121 3122 3122 3121
3151 3150 3151 3150 3148 3146 3145 3144 3144 3145 3148 3144 3145 3146 3144 3143 3143 3144 3138 3136 3134 3132 3129 3127 3125 3122 3119 3117 3116 3113 3111 3110 3109 3110 3111 3110 3110 3109 3111 3113 3112 3113 3114 3114
3148 3147 3147 3145 3145 3145 3142 3142 3142 3147 3148 3141 3142 3141 3140 3139 3138 3134 3132 3128 3126 3123 3120 3116 3112 3109 3107 3105 3103 3100 3098 3096 3096 3095 3094 3095 3096 3097 3097 3099 3101 3102 3102 3104
3148 3146 3143 3142 3143 3142 3140 3142 3145 3142 3140 3139 3137 3136 3133 3131 3128 3126 3122 3119 3115 3112 3109 3106 3102 3099 3097 3094 3090 3086 3085 3085 3080 3078 3079 3079 3080 3081 3082 3083 3084 3087 3090 3090
3146 3145 3144 3145 3143 3140 3140 3140 3139 3137 3135 3133 3131 3129 3126 3122 3119 3116 3113 3110 3106 3102 3098 3095 3091 3088 3085 3083 3079 3073 3070 3070 3068 3065 3064 3065 3066 3067 3068 3068 3068 3070 3072 3076
3140 3140 3142 3143 3141 3139 3137 3136 3135 3132 3131 3128 3126 3122 3118 3114 3112 3108 3104 3100 3096 3093 3089 3086 3080 3075 3071 3068 3065 3061 3059 3057 3055 3054 3053 3052 3051 3052 3054 3054 3054 3054 3057 3061
3138 3137 3139 3138 3137 3135 3135 3132 3130 3127 3124 3121 3118 3115 3112 3108 3103 3099 3094 3088 3083 3079 3076 3071 3066 3061 3056 3054 3051 3049 3047 3046 3044 3043 3042 3041 3041 3040 3039 3038 3039 3041 3044 3048
3136 3135 3137 3136 3133 3130 3130 3126 3124 3121 3119 3116 3112 3107 3104 3098 3090 3084 3078 3073 3070 3066 3062 3056 3051 3047 3043 3040 3039 3037 3035 3033 3032 3032 3032 3031 3030 3030 3028 3027 3028 3029 3032 3036